7 * 24
多渠道服务支持
天绘四号B星(TIANHUI 4B)于2021年12月29日由中国发射,是中国天绘卫星系列的重要组成部分。该卫星主要服务于国土资源调查、地理信息测绘、灾害监测与应急响应等领域,配备先进光学遥感载荷,可获取高分辨率对地观测数据,为国民经济建设和科学研究提供可靠的空间信息支撑,进一步增强了中国对地观测能力。
中国
(CN)
| 数据来源 | 国际轨道数据 |
| 星历时间: | 2026-06-14T23:19:51+0800 8小时前 查看轨道信息 |
| 半长轴: | 6805.212km |
| 偏心率: | 0.0010691 |
| 轨道倾角: | 88.970° |
| 近地点辐角 | 85.372° |
| 升交点赤经 | 323.068° |
| 平近点角 | 274.876° |
| 近地点: | 419.799km |
| 远地点: | 434.351km |
| 周期: | 93.116分钟 |
| 每日圈数: | 15.464658 |